Regional Weather Roundup
Issued by NWS Goodland, KS

Home | Current Version | Previous Version | Graphics & Text | Print | Product List | Glossary On
Versions: 1 2 3 4 5 6 7 8 9 10 11 12 13 14 15 16 17 18 19 20 21 22 23 24 25 26 27 28 29 30 31 32 33 34 35 36 37 38 39 40 41 42 43 44 45 46 47 48 49 50
000
ASUS43 KGLD 301459
RWRGLD

GOODLAND FORECAST AREA HOURLY WEATHER ROUNDUP
NATIONAL WEATHER SERVICE GOODLAND KS
900 AM MDT TUE JUN 30 2015

...OFFICIAL OBSERVATIONS...

CITY           SKY/WX    TMP DP  RH WIND       PRES   REMARKS
GOODLAND KS    SUNNY     85  55  35 SW6       30.08S
HILL CITY KS   MOSUNNY   83  57  41 VRB3      30.01F
IMPERIAL NEB   SUNNY     80  60  50 SW3       30.04S
MCCOOK NEB     SUNNY     78  61  55 SW5       30.01S
AKRON CO       SUNNY     77  57  50 W10       30.12F
BURLINGTON CO  SUNNY     84  52  33 W8        30.13R
LIMON CO       SUNNY     77  59  53 CALM      30.20R
$$

...UNOFFICIAL OBSERVATIONS...

CITY           SKY/WX    TMP DP  RH WIND       PRES   REMARKS
COLBY KS       SUNNY     79  64  61 CALM      30.07S
NORTON KS      SUNNY     81  52  36 S7        30.00F
$$



USA.gov is the U.S. government's official web portal to all federal, state and local government web resources and services.